Theta_e
292 292 292 292 292 292 294 294 296 298 299 301 303 302 306 306 309 308 309 311 317 316
292 292 291 292 292 292 294 295 297 298 298 299 300 303 304 306 307 307 309 312 317 316
289 290 291 293 293 293 294 296 297 298 299 300 300 302 304 305 307 308 310 311 316 316
289 289 291 292 293 294 294 294 294 295 295 296 298 300 301 303 306 305 309 310 309 315
289 289 290 291 291 292 292 293 293 294 294 296 297 299 301 302 305 306 307 308 308 314
288 289 289 289 290 291 291 291 291 292 292 293 295 296 298 300 301 304 307 306 307 315
287 288 288 289 289 289 289 289 289 290 290 291 292 293 295 298 299 299 298 302 307 315
287 287 286 286 287 288 288 288 288 288 289 290 290 291 293 292 291 290 289 290 299 308
284 284 284 285 285 286 286 286 286 286 286 286 287 290 292 290 288 288 287 287 287 288
282 282 283 284 284 284 284 285 285 285 285 284 285 288 289 288 286 285 285 286 287 286
281 281 283 283 283 283 283 283 283 283 284 284 285 287 287 286 284 284 284 285 285 285
281 282 282 282 282 282 282 282 282 283 283 283 284 286 285 284 282 281 281 282 283 284
282 282 282 282 282 283 282 282 282 282 283 283 283 286 286 284 282 281 280 281 281 282
281 282 282 282 283 282 282 281 281 281 282 282 283 284 285 285 282 281 280 279 279 280
Wind_Speed
10 8 10 12 12 11 11 12 15 14 16 16 16 16 14 13 10 11 15 24 21 16
12 15 14 15 14 12 14 13 16 16 16 18 17 17 16 14 10 12 15 22 22 19
15 15 15 14 16 15 15 16 15 16 16 18 17 17 17 15 14 13 14 10 16 21
14 15 15 14 14 13 14 15 17 17 17 18 19 18 17 17 19 17 17 14 13 23
14 14 13 13 15 14 16 15 16 17 18 19 18 17 19 19 18 17 18 15 17 23
14 14 14 15 15 15 16 16 16 17 18 17 16 16 17 20 18 21 17 16 14 21
15 15 16 16 16 15 15 16 16 17 17 16 16 16 16 19 16 14 13 16 20 26
14 14 15 16 17 16 15 15 16 17 16 15 15 12 13 10 8 4 2 6 3 13
14 14 14 15 17 16 15 15 14 15 15 14 11 20 18 9 4 5 5 7 14 16
13 14 14 14 15 14 15 14 13 11 11 9 8 3 8 14 9 11 10 5 18 18
14 14 14 13 13 13 11 11 11 11 12 11 10 15 17 23 18 19 16 14 14 22
14 13 13 13 13 11 11 9 10 11 15 16 15 17 17 22 21 24 22 19 20 21
11 12 12 12 12 10 9 9 9 14 16 20 17 17 19 22 18 23 17 19 25 36
10 11 10 11 8 9 9 10 11 15 18 20 16 18 30 33 20 16 15 16 17 16
Wind_Direction
295 296 297 296 293 286 282 286 285 274 271 266 267 269 265 258 251 268 265 279 206 190
318 309 299 292 291 289 285 283 282 279 277 274 268 270 272 272 256 260 267 276 211 189
315 305 295 294 294 287 283 284 294 292 285 278 274 272 271 263 255 255 254 272 229 194
314 306 299 296 296 306 312 307 300 293 288 283 278 278 274 268 253 250 254 252 276 212
304 303 302 308 304 304 297 296 292 292 284 277 272 270 268 269 270 255 246 257 278 203
306 305 303 300 298 298 297 294 290 285 280 276 271 269 267 261 263 256 246 253 247 207
311 310 308 306 303 297 297 294 288 282 278 273 272 266 266 269 256 243 246 253 240 208
317 316 313 309 302 296 294 291 290 288 284 277 270 263 261 251 232 177 285 286 150 181
324 317 311 309 306 302 304 303 302 298 294 286 272 268 243 187 162 110 87 89 82 85
317 312 312 317 314 317 319 316 316 313 323 328 323 304 118 112 95 82 64 49 97 91
323 317 324 331 330 330 333 336 336 349 4 16 22 54 87 91 87 77 71 65 79 93
330 333 343 343 341 345 342 350 9 22 30 33 35 46 79 87 81 76 70 67 65 80
335 349 354 347 347 351 356 7 23 38 37 41 40 41 74 82 78 75 68 66 66 70
345 2 356 348 350 354 6 19 30 45 46 45 39 48 68 71 71 76 75 68 70 69